When you browse on this site, cookies collect data to enhance your experience and personalize the content and advertising you see.
Visit our Privacy Policy to learn more. By continuing to use the site, you agree to this use of cookies and data.
  • In Austria
  • List of Countries
  • For 7 days
  • Water Temperature
  • Weather Map
  • News
  • Weather Widgets
  • user-avatar
    Login

    Hourly Weather Galata

    Today, 15 October, Tuesday

    Time Temperature Precipitation Wind Pressure Humidity
    00:00 +15°C° 0 mm 1 mps 759 mmHg 93%
    01:00 +14°C° 0 mm 1 mps 759 mmHg 93%
    02:00 +13°C° 0 mm 0 mps 759 mmHg 94%
    03:00 +13°C° 0 mm 0 mps 758 mmHg 94%
    04:00 +13°C° 0 mm 0 mps 758 mmHg 94%
    05:00 +14°C° 0 mm 1 mps 758 mmHg 94%
    06:00 +14°C° 0 mm 1 mps 758 mmHg 92%
    07:00 +15°C° 0 mm 1 mps 758 mmHg 91%
    08:00 +16°C° 0 mm 1 mps 759 mmHg 89%
    09:00 +19°C° 0 mm 1 mps 758 mmHg 81%
    10:00 +19°C° 0 mm 2 mps 758 mmHg 72%
    11:00 +21°C° 0 mm 2 mps 758 mmHg 63%
    12:00 +21°C° 0 mm 2 mps 758 mmHg 62%
    13:00 +23°C° 0 mm 2 mps 758 mmHg 60%
    14:00 +23°C° 0 mm 2 mps 757 mmHg 58%
    15:00 +21°C° 0 mm 2 mps 757 mmHg 66%
    16:00 +20°C° 0 mm 2 mps 757 mmHg 73%
    17:00 +18°C° 0 mm 2 mps 756 mmHg 80%
    18:00 +17°C° 0 mm 2 mps 757 mmHg 85%
    19:00 +17°C° 0 mm 2 mps 757 mmHg 89%
    20:00 +16°C° 0 mm 2 mps 757 mmHg 93%
    21:00 +16°C° 0 mm 2 mps 757 mmHg 93%
    22:00 +15°C° 0 mm 2 mps 757 mmHg 94%
    23:00 +15°C° 0 mm 1 mps 757 mmHg 94%

    Tomorrow, 16 October, Wednesday

    Time Temperature Precipitation Wind Pressure Humidity
    00:00 +15°C° 0 mm 1 mps 757 mmHg 94%
    01:00 +15°C° 0 mm 1 mps 757 mmHg 94%
    02:00 +14°C° 0 mm 1 mps 757 mmHg 94%
    03:00 +14°C° 0 mm 1 mps 757 mmHg 94%
    04:00 +14°C° 0 mm 1 mps 757 mmHg 94%
    05:00 +14°C° 0 mm 2 mps 757 mmHg 94%
    06:00 +15°C° 0 mm 1 mps 757 mmHg 92%
    07:00 +15°C° 0 mm 1 mps 757 mmHg 89%
    08:00 +16°C° 0 mm 1 mps 757 mmHg 87%
    09:00 +18°C° 0 mm 2 mps 757 mmHg 77%
    10:00 +20°C° 0 mm 2 mps 757 mmHg 66%
    11:00 +21°C° 0 mm 2 mps 757 mmHg 56%
    12:00 +23°C° 0 mm 2 mps 757 mmHg 53%
    13:00 +24°C° 0 mm 2 mps 757 mmHg 51%
    14:00 +24°C° 0 mm 2 mps 756 mmHg 48%
    15:00 +23°C° 0 mm 2 mps 756 mmHg 55%
    16:00 +20°C° 0 mm 3 mps 756 mmHg 62%
    17:00 +19°C° 0 mm 3 mps 756 mmHg 70%
    18:00 +18°C° 0 mm 2 mps 756 mmHg 75%
    19:00 +17°C° 0 mm 2 mps 756 mmHg 80%
    20:00 +16°C° 0 mm 2 mps 756 mmHg 86%
    21:00 +16°C° 0 mm 2 mps 757 mmHg 87%
    22:00 +15°C° 0 mm 1 mps 757 mmHg 88%
    23:00 +15°C° 0 mm 1 mps 757 mmHg 88%

    Day after tomorrow, 17 October, Thursday

    Time Temperature Precipitation Wind Pressure Humidity
    00:00 +15°C° 0 mm 1 mps 757 mmHg 88%
    01:00 +15°C° 0 mm 1 mps 757 mmHg 88%
    02:00 +14°C° 0 mm 1 mps 757 mmHg 87%
    03:00 +14°C° 0 mm 2 mps 757 mmHg 85%
    04:00 +14°C° 0 mm 2 mps 757 mmHg 84%
    05:00 +14°C° 0 mm 2 mps 757 mmHg 82%
    06:00 +15°C° 0 mm 2 mps 757 mmHg 78%
    07:00 +16°C° 0 mm 2 mps 757 mmHg 73%
    08:00 +16°C° 0 mm 1 mps 757 mmHg 69%
    09:00 +19°C° 0 mm 1 mps 757 mmHg 62%
    10:00 +21°C° 0 mm 1 mps 757 mmHg 54%
    11:00 +23°C° 0 mm 1 mps 757 mmHg 47%
    12:00 +24°C° 0 mm 2 mps 757 mmHg 45%
    13:00 +24°C° 0 mm 2 mps 757 mmHg 44%
    14:00 +25°C° 0 mm 2 mps 757 mmHg 42%
    15:00 +23°C° 0 mm 2 mps 757 mmHg 49%
    16:00 +22°C° 0 mm 1 mps 757 mmHg 56%
    17:00 +21°C° 0 mm 1 mps 756 mmHg 62%
    18:00 +20°C° 0 mm 1 mps 757 mmHg 65%
    19:00 +19°C° 0 mm 1 mps 757 mmHg 68%
    20:00 +16°C° 0 mm 0 mps 757 mmHg 70%
    21:00 +16°C° 0 mm 0 mps 757 mmHg 69%
    22:00 +16°C° 0 mm 0 mps 757 mmHg 68%
    23:00 +16°C° 0 mm 0 mps 757 mmHg 66%

    18 October, Friday

    Time Temperature Precipitation Wind Pressure Humidity
    00:00 +15°C° 0 mm 0 mps 757 mmHg 66%
    01:00 +15°C° 0 mm 0 mps 757 mmHg 66%
    02:00 +16°C° 0 mm 1 mps 757 mmHg 65%
    03:00 +16°C° 0 mm 1 mps 757 mmHg 65%
    04:00 +15°C° 0 mm 1 mps 757 mmHg 64%
    05:00 +15°C° 0 mm 1 mps 757 mmHg 63%
    06:00 +16°C° 0 mm 1 mps 757 mmHg 61%
    07:00 +18°C° 0 mm 1 mps 757 mmHg 59%
    08:00 +18°C° 0 mm 2 mps 757 mmHg 56%
    09:00 +19°C° 0 mm 2 mps 758 mmHg 50%
    10:00 +21°C° 0 mm 2 mps 758 mmHg 44%
    11:00 +24°C° 0 mm 1 mps 758 mmHg 38%
    12:00 +24°C° 0 mm 2 mps 758 mmHg 37%
    13:00 +25°C° 0 mm 2 mps 757 mmHg 36%
    14:00 +25°C° 0 mm 2 mps 757 mmHg 35%
    15:00 +24°C° 0 mm 2 mps 757 mmHg 45%
    16:00 +21°C° 0 mm 2 mps 757 mmHg 54%
    17:00 +19°C° 0 mm 2 mps 757 mmHg 63%
    18:00 +18°C° 0 mm 2 mps 757 mmHg 69%
    19:00 +17°C° 0 mm 2 mps 757 mmHg 75%
    20:00 +16°C° 0 mm 1 mps 757 mmHg 81%
    21:00 +16°C° 0 mm 1 mps 757 mmHg 80%
    22:00 +16°C° 0 mm 1 mps 758 mmHg 79%
    23:00 +16°C° 0 mm 1 mps 758 mmHg 78%

    19 October, Saturday

    Time Temperature Precipitation Wind Pressure Humidity
    00:00 +16°C° 0 mm 1 mps 758 mmHg 77%
    01:00 +15°C° 0 mm 1 mps 757 mmHg 76%
    02:00 +15°C° 0 mm 1 mps 757 mmHg 75%
    03:00 +15°C° 0 mm 2 mps 757 mmHg 75%
    04:00 +15°C° 0 mm 2 mps 758 mmHg 74%
    05:00 +14°C° 0 mm 2 mps 758 mmHg 74%
    06:00 +15°C° 0 mm 2 mps 758 mmHg 72%
    07:00 +16°C° 0 mm 2 mps 758 mmHg 69%
    08:00 +16°C° 0 mm 2 mps 758 mmHg 67%
    09:00 +18°C° 0 mm 2 mps 758 mmHg 60%
    10:00 +20°C° 0 mm 3 mps 758 mmHg 53%
    11:00 +22°C° 0 mm 3 mps 758 mmHg 45%
    12:00 +24°C° 0 mm 3 mps 758 mmHg 44%
    13:00 +24°C° 0 mm 3 mps 758 mmHg 42%
    14:00 +25°C° 0 mm 3 mps 758 mmHg 41%
    15:00 +22°C° 0 mm 3 mps 758 mmHg 48%
    16:00 +21°C° 0 mm 3 mps 758 mmHg 55%
    17:00 +20°C° 0 mm 3 mps 758 mmHg 62%
    18:00 +18°C° 0 mm 3 mps 758 mmHg 70%
    19:00 +17°C° 0 mm 3 mps 758 mmHg 77%
    20:00 +16°C° 0 mm 3 mps 758 mmHg 85%
    21:00 +16°C° 0 mm 3 mps 758 mmHg 87%
    22:00 +15°C° 0 mm 2 mps 758 mmHg 89%
    23:00 +15°C° 0 mm 2 mps 759 mmHg 91%

    20 October, Sunday

    Time Temperature Precipitation Wind Pressure Humidity
    00:00 +15°C° 0 mm 2 mps 758 mmHg 91%
    01:00 +15°C° 0 mm 2 mps 758 mmHg 91%
    02:00 +15°C° 0 mm 1 mps 758 mmHg 91%
    03:00 +14°C° 0 mm 1 mps 758 mmHg 91%
    04:00 +14°C° 0 mm 1 mps 758 mmHg 91%
    05:00 +14°C° 0 mm 2 mps 758 mmHg 91%
    06:00 +15°C° 0 mm 2 mps 758 mmHg 87%
    07:00 +15°C° 0 mm 1 mps 758 mmHg 84%
    08:00 +16°C° 0 mm 1 mps 759 mmHg 80%
    09:00 +17°C° 0 mm 2 mps 759 mmHg 72%
    10:00 +19°C° 0 mm 2 mps 759 mmHg 63%
    11:00 +21°C° 0 mm 2 mps 759 mmHg 55%
    12:00 +21°C° 0 mm 2 mps 759 mmHg 53%
    13:00 +23°C° 0 mm 2 mps 759 mmHg 50%
    14:00 +23°C° 0 mm 2 mps 758 mmHg 48%
    15:00 +21°C° 0 mm 2 mps 758 mmHg 53%
    16:00 +20°C° 0 mm 2 mps 758 mmHg 59%
    17:00 +19°C° 0 mm 1 mps 758 mmHg 64%
    18:00 +19°C° 0 mm 1 mps 758 mmHg 68%
    19:00 +18°C° 0 mm 1 mps 759 mmHg 72%
    20:00 +16°C° 0 mm 1 mps 759 mmHg 76%
    21:00 +16°C° 0 mm 1 mps 759 mmHg 78%
    22:00 +15°C° 0 mm 1 mps 759 mmHg 80%
    23:00 +15°C° 0 mm 1 mps 759 mmHg 81%
    Show more